Regional Weather Roundup
Issued by NWS

Home | Current Version | Previous Version | Graphics & Text | Print | Product List | Glossary On
Versions: 1 2 3 4 5 6 7 8 9 10 11 12 13 14 15 16 17 18 19 20 21 22 23 24 25 26 27 28
000
ASUS45 KCYS 242110
RWRWY

WYOMING REGIONAL WEATHER ROUNDUP
NATIONAL WEATHER SERVICE CHEYENNE WY
300 PM MDT FRI OCT 24 2014

NOTE:  "FAIR" INDICATES FEW OR NO CLOUDS BELOW 12,000 FEET
WITH NO SIGNIFICANT WEATHER AND/OR OBSTRUCTIONS TO VISIBILITY.

WYZ001-242200-
YELLOWSTONE NATIONAL PARK

CITY           SKY/WX    TMP DP  RH WIND       PRES   REMARKS
LK YELLOWSTONE   N/A     52  26  36 VRB7      30.23
W YELLOWSTONE  NOT AVBL

$$
WYZ002>013-054>058-071-098>099-242200-
NORTHERN WYOMING

CITY           SKY/WX    TMP DP  RH WIND       PRES   REMARKS
JACKSON        SUNNY     64  23  20 SW22G30   30.16F
CODY           CLOUDY    66  34  30 NE14      30.02
GREYBULL       MOSUNNY   74  28  18 SE8       29.97F
WORLAND        SUNNY     76  28  17 VRB3      29.98F
SHERIDAN       MOSUNNY   69  34  27 N7        30.03S
BUFFALO        MOSUNNY   67  27  22 CALM      30.07F
GILLETTE       SUNNY     67  33  28 NE6       30.04S
HULETT         FAIR      64  34  32 NE3       30.06
NEWCASTLE      FAIR      72  25  17 SE6       30.03

$$
WYZ014>020-022>026-101>103-242200-
CENTRAL WYOMING

CITY           SKY/WX    TMP DP  RH WIND       PRES   REMARKS
BIG PINEY      LGT RAIN  68  17  14 W15G24    30.23F
PINEDALE       CLEAR     64  23  20 W9        30.22
DUBOIS         FAIR      63  19  19 W28G36    30.15R
LANDER         SUNNY     74  22  14 VRB3      30.06F
RIVERTON       SUNNY     71  25  17 E8        30.07F
CASPER         SUNNY     75  22  13 SW23G35   30.07F
DOUGLAS        SUNNY     78  22  12 W20G29    30.07R

$$
WYZ021-027>030-104>119-242200-
SOUTHERN WYOMING

CITY           SKY/WX    TMP DP  RH WIND       PRES   REMARKS
EVANSTON       SUNNY     69  23  17 SW17G26   30.25F
KEMMERER       CLEAR     66  19  16 W13G29    30.26F
FORT BRIDGER   FAIR      71  23  16 W21       30.28F
ROCK SPRINGS   SUNNY     67  22  18 W12G18    30.23F
RAWLINS        SUNNY     68  26  20 SW22G30   30.23F
SARATOGA       FAIR      68  23  18 SW25G32   30.26S
LARAMIE        SUNNY     70  21  15 W17G28    30.23F
CHEYENNE       SUNNY     76  20  12 W22G28    30.17F
TORRINGTON     SUNNY     81  27  14 W20G26    30.02F
PINE BLUFFS    FAIR      79  23  12 W16G23    30.12S

$$



USA.gov is the U.S. government's official web portal to all federal, state and local government web resources and services.